TimeCST,TemperatureF,Dew PointF,Humidity,Sea Level PressureIn,VisibilityMPH,Wind Direction,Wind SpeedMPH,Gust SpeedMPH,PrecipitationIn,Events,Conditions,WindDirDegrees,DateUTC
12:10 AM,39.2,33.8,81,29.71,10.0,South,13.8,-,N/A,,Clear,190,2007-01-04 06:10:00
12:30 AM,37.4,33.8,87,29.70,10.0,South,15.0,-,N/A,,Clear,190,2007-01-04 06:30:00
12:50 AM,37.4,33.8,87,29.70,10.0,SSW,11.5,-,N/A,,Clear,200,2007-01-04 06:50:00
1:10 AM,37.4,33.8,87,29.71,10.0,SSW,10.4,-,N/A,,Clear,210,2007-01-04 07:10:00
1:30 AM,37.4,33.8,87,29.71,10.0,SSW,10.4,-,N/A,,Clear,200,2007-01-04 07:30:00
1:50 AM,37.4,33.8,87,29.71,10.0,SSW,10.4,-,N/A,,Clear,200,2007-01-04 07:50:00
2:10 AM,37.4,33.8,87,29.71,10.0,SSW,12.7,-,N/A,,Clear,200,2007-01-04 08:10:00
2:30 AM,37.4,33.8,87,29.71,10.0,SSW,11.5,-,N/A,,Clear,200,2007-01-04 08:30:00
2:50 AM,37.4,33.8,87,29.71,10.0,South,13.8,-,N/A,,Clear,190,2007-01-04 08:50:00
3:10 AM,37.4,33.8,87,29.70,10.0,South,13.8,-,N/A,,Clear,190,2007-01-04 09:10:00
3:30 AM,35.6,33.8,93,29.70,10.0,South,12.7,-,N/A,,Clear,190,2007-01-04 09:30:00
3:50 AM,35.6,35.6,100,29.69,10.0,South,13.8,-,N/A,,Clear,190,2007-01-04 09:50:00
4:10 AM,37.4,35.6,93,29.68,10.0,South,13.8,18.4,N/A,,Clear,190,2007-01-04 10:10:00
4:30 AM,37.4,35.6,93,29.68,10.0,South,16.1,20.7,N/A,,Clear,190,2007-01-04 10:30:00
4:50 AM,37.4,35.6,93,29.66,10.0,South,17.3,23.0,N/A,,Clear,190,2007-01-04 10:50:00
5:10 AM,37.4,35.6,93,29.66,10.0,SSW,12.7,-,N/A,,Clear,200,2007-01-04 11:10:00
5:30 AM,37.4,35.6,93,29.66,10.0,SSW,11.5,-,N/A,,Clear,200,2007-01-04 11:30:00
5:50 AM,37.4,35.6,93,29.66,10.0,SSW,13.8,-,N/A,,Clear,200,2007-01-04 11:50:00
6:10 AM,37.4,35.6,93,29.66,10.0,SSW,11.5,-,N/A,,Clear,210,2007-01-04 12:10:00
6:30 AM,37.4,35.6,93,29.66,10.0,SSW,12.7,-,N/A,,Mostly Cloudy,210,2007-01-04 12:30:00
6:50 AM,37.4,35.6,93,29.65,10.0,SSW,15.0,21.9,N/A,,Overcast,210,2007-01-04 12:50:00
7:10 AM,37.4,35.6,93,29.64,10.0,SSW,17.3,-,N/A,,Overcast,200,2007-01-04 13:10:00
7:30 AM,37.4,37.4,100,29.64,7.0,SSW,13.8,-,N/A,,Overcast,200,2007-01-04 13:30:00
7:50 AM,39.2,37.4,93,29.66,7.0,SW,13.8,-,N/A,,Overcast,230,2007-01-04 13:50:00
8:10 AM,39.2,37.4,93,29.66,7.0,SW,11.5,-,N/A,,Overcast,220,2007-01-04 14:10:00
8:30 AM,39.2,37.4,93,29.64,7.0,SSW,11.5,-,N/A,,Overcast,200,2007-01-04 14:30:00
8:50 AM,39.2,37.4,93,29.64,5.0,SSW,10.4,-,N/A,,Overcast,210,2007-01-04 14:50:00
9:10 AM,39.2,37.4,93,29.65,5.0,SSW,11.5,-,N/A,,Overcast,200,2007-01-04 15:10:00
9:30 AM,41.0,37.4,87,29.65,7.0,SSW,13.8,-,N/A,,Overcast,200,2007-01-04 15:30:00
9:50 AM,41.0,37.4,87,29.66,7.0,SSW,15.0,-,N/A,,Mostly Cloudy,200,2007-01-04 15:50:00
10:10 AM,41.0,37.4,87,29.64,7.0,SSW,15.0,-,N/A,,Mostly Cloudy,200,2007-01-04 16:10:00
10:30 AM,41.0,37.4,87,29.64,7.0,SSW,13.8,-,N/A,,Mostly Cloudy,210,2007-01-04 16:30:00
10:50 AM,41.0,37.4,87,29.65,10.0,SW,12.7,19.6,N/A,,Scattered Clouds,220,2007-01-04 16:50:00
11:10 AM,42.8,39.2,87,29.64,10.0,SW,15.0,20.7,N/A,,Scattered Clouds,220,2007-01-04 17:10:00
11:30 AM,42.8,37.4,81,29.62,10.0,SSW,13.8,-,N/A,,Clear,210,2007-01-04 17:30:00
11:50 AM,42.8,39.2,87,29.61,10.0,SSW,13.8,-,N/A,,Clear,210,2007-01-04 17:50:00
12:10 PM,44.6,39.2,81,29.59,10.0,SSW,18.4,21.9,N/A,,Clear,210,2007-01-04 18:10:00
12:30 PM,44.6,39.2,81,29.57,10.0,SSW,15.0,-,N/A,,Clear,210,2007-01-04 18:30:00
12:50 PM,44.6,39.2,81,29.57,10.0,SSW,12.7,24.2,N/A,,Clear,210,2007-01-04 18:50:00
1:10 PM,46.4,41.0,81,29.56,10.0,SSW,17.3,25.3,N/A,,Clear,210,2007-01-04 19:10:00
1:30 PM,46.4,41.0,81,29.56,10.0,SSW,18.4,24.2,N/A,,Clear,210,2007-01-04 19:30:00
1:50 PM,46.4,41.0,81,29.55,10.0,SW,17.3,23.0,N/A,,Clear,220,2007-01-04 19:50:00
2:10 PM,46.4,41.0,81,29.54,10.0,SW,13.8,-,N/A,,Clear,220,2007-01-04 20:10:00
2:30 PM,48.2,41.0,76,29.54,10.0,SW,15.0,20.7,N/A,,Clear,220,2007-01-04 20:30:00
2:50 PM,48.2,41.0,76,29.54,10.0,SW,13.8,-,N/A,,Clear,230,2007-01-04 20:50:00
3:10 PM,48.2,41.0,76,29.56,10.0,SW,16.1,19.6,N/A,,Clear,230,2007-01-04 21:10:00
3:30 PM,48.2,41.0,76,29.56,10.0,SW,13.8,-,N/A,,Clear,220,2007-01-04 21:30:00
3:50 PM,48.2,41.0,76,29.56,10.0,WSW,10.4,-,N/A,,Clear,240,2007-01-04 21:50:00
4:10 PM,46.4,41.0,81,29.56,10.0,SW,11.5,-,N/A,,Clear,220,2007-01-04 22:10:00
4:30 PM,46.4,41.0,81,29.54,10.0,SSW,10.4,-,N/A,,Clear,210,2007-01-04 22:30:00
4:50 PM,44.6,41.0,87,29.55,10.0,SSW,10.4,-,N/A,,Clear,210,2007-01-04 22:50:00
5:10 PM,44.6,39.2,81,29.56,10.0,SW,6.9,-,N/A,,Clear,220,2007-01-04 23:10:00
5:30 PM,42.8,37.4,81,29.57,10.0,SW,6.9,-,N/A,,Clear,230,2007-01-04 23:30:00
5:50 PM,41.0,37.4,87,29.57,10.0,WSW,4.6,-,N/A,,Clear,240,2007-01-04 23:50:00
6:10 PM,41.0,37.4,87,29.58,10.0,SSW,5.8,-,N/A,,Clear,210,2007-01-05 00:10:00
6:30 PM,41.0,37.4,87,29.60,10.0,SW,4.6,-,N/A,,Clear,230,2007-01-05 00:30:00
6:50 PM,39.2,37.4,93,29.59,10.0,SSW,5.8,-,N/A,,Clear,200,2007-01-05 00:50:00
7:10 PM,41.0,37.4,87,29.59,10.0,SSW,6.9,-,N/A,,Clear,200,2007-01-05 01:10:00
7:30 PM,41.0,37.4,87,29.59,10.0,SW,5.8,-,N/A,,Clear,220,2007-01-05 01:30:00
7:50 PM,42.8,37.4,81,29.59,10.0,SW,8.1,-,N/A,,Clear,230,2007-01-05 01:50:00
8:10 PM,42.8,37.4,81,29.58,10.0,WSW,9.2,-,N/A,,Clear,240,2007-01-05 02:10:00
8:30 PM,42.8,37.4,81,29.60,10.0,SW,8.1,-,N/A,,Clear,230,2007-01-05 02:30:00
8:50 PM,42.8,37.4,81,29.61,10.0,SW,8.1,-,N/A,,Clear,220,2007-01-05 02:50:00
9:10 PM,42.8,37.4,81,29.63,10.0,WSW,9.2,-,N/A,,Clear,250,2007-01-05 03:10:00
9:30 PM,41.0,37.4,87,29.63,10.0,WSW,5.8,-,N/A,,Clear,240,2007-01-05 03:30:00
9:50 PM,41.0,37.4,87,29.64,10.0,WSW,6.9,-,N/A,,Clear,240,2007-01-05 03:50:00
10:10 PM,39.2,35.6,87,29.64,10.0,West,6.9,-,N/A,,Clear,260,2007-01-05 04:10:00
10:30 PM,39.2,35.6,87,29.64,10.0,West,4.6,-,N/A,,Clear,260,2007-01-05 04:30:00
10:50 PM,39.2,35.6,87,29.64,10.0,WNW,8.1,-,N/A,,Clear,290,2007-01-05 04:50:00
11:10 PM,39.2,35.6,87,29.65,10.0,NW,10.4,-,N/A,,Clear,310,2007-01-05 05:10:00
11:30 PM,37.4,33.8,87,29.65,10.0,NW,11.5,-,N/A,,Clear,310,2007-01-05 05:30:00
11:50 PM,37.4,33.8,87,29.64,10.0,NW,9.2,-,N/A,,Clear,310,2007-01-05 05:50:00